Regional Weather Roundup
Issued by NWS

Home | Current Version | Previous Version | Graphics & Text | Print | Product List | Glossary On
Versions: 1 2 3 4 5 6 7 8 9 10 11 12 13 14 15 16 17 18 19 20 21 22 23 24 25 26 27 28 29 30 31 32 33 34 35 36 37 38 39 40 41 42 43 44 45 46 47 48 49
000
ASUS43 KDMX 212207
RWRIA

WEATHER ROUNDUP FOR IOWA
NATIONAL WEATHER SERVICE DES MOINES IA
400 PM CST FRI NOV 21 2014

NOTE: "FAIR" INDICATES FEW OR NO CLOUDS BELOW 12,000 FEET WITH NO
SIGNIFICANT WEATHER AND/OR OBSTRUCTIONS TO VISIBILITY.

* - THESE STATIONS ARE NOT NWS STATIONS...THUS NOT UNDER NWS
QUALITY CONTROL.  THEY ALSO DO NOT REPORT WEATHER SUCH
AS PRECIPITATION OR FOG.

IAZ001>003-012>014-020>022-031>034-043>046-212300-
   NORTHWEST IOWA

CITY           SKY/WX    TMP DP  RH WIND       PRES   REMARKS
CARROLL *      CLEAR     36  28  75 S15       30.06S WCI  26
CHEROKEE *     MOCLDY    34  28  80 S13G18    30.01F WCI  25
DENISON *      CLEAR     36  27  69 S8        30.03F WCI  29
LE MARS *      CLEAR     36  27  69 S14G24    29.99F WCI  27
ORANGE CITY *  CLEAR     36  27  69 S20       29.96S WCI  25
SHELDON *      CLEAR     34  27  75 S15       29.96S WCI  24
SIOUX CITY     PTCLDY    38  27  64 S13       30.01F WCI  30
SPENCER        MOCLDY    32  25  75 S15       30.00F WCI  22
STORM LAKE *   CLEAR     34  27  75 S17       30.02F WCI  23
$$

IAZ055>058-069>071-079>083-090>094-212300-
   SOUTHWEST IOWA

CITY           SKY/WX    TMP DP  RH WIND       PRES   REMARKS
ATLANTIC *     CLOUDY    39  30  70 S10       30.07S WCI  32
AUDUBON *      CLEAR     37  27  65 S12G17    30.07S WCI  30
CLARINDA *     CLOUDY    39  28  65 SE9       30.11F WCI  33
COUNCIL BLFS * CLOUDY    37  28  70 S9        30.04F WCI  31
CRESTON *      CLOUDY    36  28  75 SE12      30.10F WCI  27
HARLAN  *      PTCLDY    37  30  75 S13       30.09F WCI  29
LAMONI         CLOUDY    37  26  64 SE9       30.12F WCI  30
RED OAK *      CLOUDY    39  28  65 SE12      30.08F WCI  32
SHENANDOAH *   CLOUDY    41  30  65 S10G16    30.09S
$$

IAZ047>049-059>061-072>074-084-212300-
   CENTRAL IOWA

CITY           SKY/WX    TMP DP  RH WIND       PRES   REMARKS
AMES           CLOUDY    35  23  61 S14       30.11F WCI  26
ANKENY *       CLOUDY    37  23  56 S14G21    30.12F WCI  29
CHARITON *     CLOUDY    37  23  56 SE12G17   30.14F WCI  30
DES MOINES     CLOUDY    38  24  57 S14       30.13F WCI  30
GRINNELL*      CLOUDY    34  21  60 SE16      30.16F WCI  23
KNOXVILLE *    CLOUDY    37  21  52 SE14      30.15R WCI  29
MARSHALLTOWN   CLOUDY    34  22  61 S17       30.13F WCI  23
PELLA *        CLOUDY    36  21  55 SE14      30.17F WCI  27
PERRY *          N/A     36  28  75 S13       30.09S WCI  27
$$

IAZ004>006-015-016-023>025-035-036-212300-
   NORTH CENTRAL IOWA

CITY           SKY/WX    TMP DP  RH WIND       PRES   REMARKS
ALGONA *       CLEAR     30  25  80 S16       30.05F WCI  19
CLARION *      CLEAR     30  23  74 S16       30.08F WCI  19
ESTHERVILLE    MOCLDY    29  23  78 S21       30.00F WCI  16
FORT DODGE *   MOCLDY    34  21  60 S8        30.07F WCI  27
MASON CITY     MOCLDY    28  21  75 S20       30.10S WCI  15
FOREST CITY *  CLEAR     30  25  80 S18       30.07S WCI  18
IOWA FALLS *   MOCLDY    32  23  69 SE14      30.12F WCI  22
$$

IAZ007>011-017>019-026>030-037>042-050>054-066-212300-
   NORTHEAST IOWA

CITY           SKY/WX    TMP DP  RH WIND       PRES   REMARKS
CEDAR RAPIDS   MOCLDY    33  17  51 S13       30.19F WCI  24
CHARLES CITY * CLEAR     28  19  69 S16       30.13S WCI  17
CLINTON *      CLEAR     32   7  34 S9        30.28F WCI  24
DECORAH *      CLEAR     27  14  59 S12       30.13F WCI  16
DUBUQUE        CLEAR     28  13  53 S10       30.21F WCI  19
MONTICELLO *   CLEAR     30  14  51 SE10      30.21S WCI  21
OELWEIN *      CLEAR     28  18  64 SE12      30.17S WCI  18
WATERLOO       PTCLDY    30  19  63 S16G23    30.16S WCI  19
$$

IAZ064-065-067-068-078-212300-
   EAST CENTRAL IOWA

CITY           SKY/WX    TMP DP  RH WIND       PRES   REMARKS
DAVENPORT      CLEAR     34   5  29 S16       30.25F WCI  24
IOWA CITY      MOCLDY    34  15  46 SE10      30.24S WCI  26
MT. PLEASANT * CLOUDY    36  16  44 SE15      30.23F WCI  26
MUSCATINE *    CLEAR     36  10  35 SE10G16   30.25S WCI  28
QUAD CITIES    CLEAR     34   6  31 SE13      30.26S WCI  25
$$

IAZ062-063-075>077-085>089-095>099-212300-
   SOUTHEAST IOWA

CITY           SKY/WX    TMP DP  RH WIND       PRES   REMARKS
BURLINGTON     MOCLDY    36  13  38 SE9       30.24F WCI  29
FAIRFIELD *    CLOUDY    36  18  48 SE10      30.21F WCI  28
FORT MADISON * CLOUDY    39  18  41 SE7G16    30.25S WCI  34
KEOKUK *       CLOUDY    37  18  44 SE8G16    30.24S WCI  31
OSKALOOSA *    CLOUDY    36  21  55 SE14      30.19S WCI  27
CENTERVILLE *  CLOUDY    36  23  60 SE10      30.18F WCI  28
OTTUMWA        CLOUDY    35  19  52 SE13      30.17F WCI  26
WASHINGTON *   CLOUDY    36  16  44 SE14      30.22F WCI  27
$$

ABBREVIATIONS USED IN REMARKS
   TC - TEMPERATURES IN CELSIUS
  WCI - WIND CHILL INDEX
   HX - HEAT INDEX
  VSB - VISIBILITY
$$



USA.gov is the U.S. government's official web portal to all federal, state and local government web resources and services.